Big Rapids, MI

12:31 AM EST on February 10, 2016 (GMT -0500)
Roben-Hood

Weather History for KRQB - August, 2012

Change the Weather History Date:

Friday, August 17, 2012

  Actual Average Record
Temperature  
Mean Temperature 60 °F -  
Max Temperature 71 °F 80 °F 101 °F (1988)
Min Temperature 49 °F 55 °F 39 °F (1992)
Degree Days  
Heating Degree Days 4    
Growing Degree Days 10 (Base 50)    
Moisture  
Dew Point 50 °F    
Average Humidity 68    
Maximum Humidity 92    
Minimum Humidity 36    
Precipitation  
Precipitation 0.00 in - - ()
Sea Level Pressure  
Sea Level Pressure 29.93 in    
Wind  
Wind Speed 8 mph (WNW)    
Max Wind Speed 15 mph    
Max Gust Speed 22 mph    
Visibility 10 miles    
Events      
Averages and records for this station are not official NWS values.
T = Trace of Precipitation, MM = Missing Value Source: NWS Daily Summary

Daily Weather History Graph

Daily Weather History Graph

Search for Another Location

Airport or City:

Trip Planner

Search our weather history database for the weather conditions in past years. The results will help you decide how hot, cold, wet, or windy it might be!

Date:

Astronomy

Aug. 17, 2012 Rise Set
Actual Time 6:49 AM EDT 8:41 PM EDT
Civil Twilight 6:18 AM EDT 9:12 PM EDT
Nautical Twilight 5:40 AM EDT 9:50 PM EDT
Astronomical Twilight 4:59 AM EDT 10:30 PM EDT
Moon 6:53 AM EDT (8/17) 8:21 PM EDT (8/17)
Length of Visible Light 14h 54m
Length of Day
13h 52m
New Moon, 0% of the Moon is Illuminated
Aug 17
New Moon
Aug 24
First Quarter
Aug 31
Full
Sep 8
Last Quarter
Sep 15
New

Hourly Weather History & Observations

Time (EDT) Temp. Dew Point Humidity Pressure Visibility Wind Dir Wind Speed Gust Speed Precip Events Conditions
12:15 AM 63.3 °F 59.9 °F 89% 29.83 in 10.0 mi West 5.8 mph - N/A   Mostly Cloudy
12:54 AM 63.3 °F 59.2 °F 86% 29.84 in 10.0 mi West 4.6 mph - N/A   Overcast
1:15 AM 63.1 °F 59.0 °F 86% 29.84 in 10.0 mi West 9.2 mph 17.3 mph N/A   Overcast
1:35 AM 63.0 °F 59.0 °F 87% 29.84 in 10.0 mi NW 4.6 mph - N/A   Overcast
1:55 AM 62.4 °F 58.6 °F 87% 29.85 in 10.0 mi West 8.1 mph - N/A   Overcast
2:15 AM 62.2 °F 58.5 °F 87% 29.85 in 10.0 mi WNW 8.1 mph - N/A   Overcast
2:35 AM 61.3 °F 57.6 °F 87% 29.84 in 10.0 mi WNW 6.9 mph - N/A   Mostly Cloudy
2:55 AM 61.5 °F 57.4 °F 86% 29.84 in 10.0 mi WNW 10.4 mph 18.4 mph N/A   Mostly Cloudy
3:15 AM 60.6 °F 57.4 °F 89% 29.85 in 10.0 mi WNW 9.2 mph 17.3 mph N/A   Mostly Cloudy
3:35 AM 59.7 °F 56.5 °F 89% 29.85 in 10.0 mi West 10.4 mph - N/A   Scattered Clouds
3:55 AM 59.4 °F 56.5 °F 90% 29.86 in 10.0 mi West 5.8 mph - N/A   Clear
4:15 AM 57.6 °F 55.2 °F 92% 29.86 in 10.0 mi West 11.5 mph - N/A   Scattered Clouds
4:34 AM 59.9 °F 57.2 °F 91% 29.86 in 10.0 mi West 10.4 mph - N/A   Overcast
4:55 AM 59.4 °F 56.3 °F 90% 29.86 in 10.0 mi West 8.1 mph - N/A   Scattered Clouds
5:34 AM 59.0 °F 55.9 °F 90% 29.87 in 10.0 mi West 9.2 mph - N/A   Overcast
5:55 AM 59.0 °F 56.1 °F 90% 29.87 in 10.0 mi West 12.7 mph - N/A   Overcast
6:15 AM 57.6 °F 55.0 °F 91% 29.88 in 10.0 mi West 10.4 mph - N/A   Scattered Clouds
6:35 AM 56.8 °F 54.3 °F 91% 29.89 in 10.0 mi WNW 10.4 mph - N/A   Clear
6:55 AM 56.7 °F 54.3 °F 92% 29.89 in 10.0 mi WNW 10.4 mph - N/A   Clear
7:14 AM 56.7 °F 54.1 °F 91% 29.90 in 10.0 mi WNW 9.2 mph - N/A   Clear
7:35 AM 58.1 °F 55.0 °F 90% 29.90 in 10.0 mi WNW 11.5 mph - N/A   Clear
7:55 AM 60.1 °F 55.9 °F 86% 29.90 in 10.0 mi WNW 10.4 mph - N/A   Mostly Cloudy
8:14 AM 59.9 °F 55.6 °F 86% 29.91 in 10.0 mi WNW 3.5 mph - N/A   Overcast
8:35 AM 60.6 °F 56.1 °F 85% 29.91 in 10.0 mi West 9.2 mph - N/A   Mostly Cloudy
8:55 AM 61.7 °F 55.6 °F 80% 29.92 in 10.0 mi NW 8.1 mph - N/A   Scattered Clouds
9:14 AM 62.6 °F 54.9 °F 76% 29.92 in 10.0 mi NNW 10.4 mph 18.4 mph N/A   Scattered Clouds
9:35 AM 62.6 °F 52.7 °F 70% 29.92 in 10.0 mi NW 11.5 mph 18.4 mph N/A   Mostly Cloudy
9:55 AM 62.6 °F 52.3 °F 69% 29.93 in 10.0 mi NNW 10.4 mph 18.4 mph N/A   Mostly Cloudy
10:14 AM 63.7 °F 50.9 °F 63% 29.93 in 10.0 mi NW 10.4 mph 17.3 mph N/A   Mostly Cloudy
10:35 AM 64.8 °F 49.8 °F 58% 29.93 in 10.0 mi NW 13.8 mph 19.6 mph N/A   Mostly Cloudy
10:55 AM 65.3 °F 50.0 °F 58% 29.93 in 10.0 mi NW 11.5 mph 18.4 mph N/A   Overcast
11:15 AM 64.8 °F 49.6 °F 58% 29.93 in 10.0 mi NW 15.0 mph 21.9 mph N/A   Overcast
11:35 AM 65.3 °F 49.6 °F 57% 29.93 in 10.0 mi NW 9.2 mph - N/A   Overcast
11:54 AM 67.5 °F 49.1 °F 52% 29.94 in 10.0 mi WNW 10.4 mph 16.1 mph N/A   Mostly Cloudy
12:15 PM 67.5 °F 48.0 °F 50% 29.94 in 10.0 mi NW 10.4 mph 17.3 mph N/A   Mostly Cloudy
12:35 PM 68.0 °F 48.4 °F 49% 29.94 in 10.0 mi WNW 9.2 mph 17.3 mph N/A   Mostly Cloudy
12:54 PM 68.7 °F 47.3 °F 46% 29.93 in 10.0 mi WNW 12.7 mph 19.6 mph N/A   Mostly Cloudy
1:15 PM 69.3 °F 46.9 °F 45% 29.94 in 10.0 mi WNW 12.7 mph 18.4 mph N/A   Mostly Cloudy
1:35 PM 70.0 °F 45.5 °F 41% 29.94 in 10.0 mi WNW 15.0 mph 21.9 mph N/A   Mostly Cloudy
1:55 PM 69.6 °F 44.1 °F 40% 29.94 in 10.0 mi WNW 15.0 mph 20.7 mph N/A   Scattered Clouds
2:15 PM 68.4 °F 45.1 °F 43% 29.94 in 10.0 mi NNW 11.5 mph 19.6 mph N/A   Mostly Cloudy
2:35 PM 69.3 °F 45.0 °F 42% 29.94 in 10.0 mi NW 10.4 mph 19.6 mph N/A   Mostly Cloudy
2:55 PM 70.2 °F 44.8 °F 40% 29.95 in 10.0 mi WNW 10.4 mph 20.7 mph N/A   Mostly Cloudy
3:15 PM 70.7 °F 45.1 °F 40% 29.95 in 10.0 mi WNW 12.7 mph 19.6 mph N/A   Mostly Cloudy
3:34 PM 71.1 °F 44.4 °F 38% 29.95 in 10.0 mi NW 11.5 mph 21.9 mph N/A   Scattered Clouds
3:55 PM 71.1 °F 44.2 °F 38% 29.95 in 10.0 mi NW 9.2 mph 18.4 mph N/A   Scattered Clouds
4:15 PM 70.2 °F 43.7 °F 38% 29.96 in 10.0 mi WNW 11.5 mph 21.9 mph N/A   Scattered Clouds
4:35 PM 70.7 °F 43.7 °F 38% 29.96 in 10.0 mi West 11.5 mph 19.6 mph N/A   Scattered Clouds
4:55 PM 70.3 °F 43.3 °F 38% 29.96 in 10.0 mi NW 12.7 mph 18.4 mph N/A   Scattered Clouds
5:15 PM 70.3 °F 42.4 °F 36% 29.96 in 10.0 mi West 11.5 mph 16.1 mph N/A   Scattered Clouds
5:35 PM 70.2 °F 41.9 °F 36% 29.96 in 10.0 mi NW 10.4 mph 19.6 mph N/A   Clear
5:54 PM 69.6 °F 42.3 °F 37% 29.96 in 10.0 mi WNW 12.7 mph 19.6 mph N/A   Clear
6:15 PM 69.6 °F 42.8 °F 38% 29.96 in 10.0 mi NW 9.2 mph 16.1 mph N/A   Clear
6:35 PM 68.9 °F 41.0 °F 36% 29.97 in 10.0 mi NNW 11.5 mph 17.3 mph N/A   Clear
6:54 PM 68.0 °F 40.6 °F 37% 29.97 in 10.0 mi NW 8.1 mph - N/A   Clear
7:15 PM 67.3 °F 42.4 °F 40% 29.97 in 10.0 mi NW 8.1 mph 16.1 mph N/A   Clear
7:35 PM 66.4 °F 43.5 °F 44% 29.98 in 10.0 mi NW 8.1 mph - N/A   Clear
7:54 PM 65.3 °F 44.4 °F 47% 29.98 in 10.0 mi NW 6.9 mph - N/A   Clear
8:15 PM 63.9 °F 45.0 °F 50% 29.98 in 10.0 mi NW 4.6 mph - N/A   Clear
8:54 PM 57.4 °F 47.7 °F 70% 29.98 in 10.0 mi West 3.5 mph - N/A   Clear
9:15 PM 53.8 °F 48.0 °F 81% 29.99 in 10.0 mi Calm Calm - N/A   Clear
9:35 PM 53.2 °F 47.5 °F 81% 29.99 in 10.0 mi West 8.1 mph - N/A   Clear
9:54 PM 52.0 °F 48.6 °F 88% 30.00 in 10.0 mi Calm Calm - N/A   Clear
10:15 PM 51.8 °F 48.7 °F 89% 30.00 in 10.0 mi NNW 3.5 mph - N/A   Clear
10:35 PM 51.3 °F 48.4 °F 90% 30.00 in 10.0 mi Calm Calm - N/A   Clear
10:54 PM 51.3 °F 48.4 °F 90% 30.00 in 10.0 mi Calm Calm - N/A   Clear
11:15 PM 50.9 °F 48.2 °F 90% 30.00 in 10.0 mi Calm Calm - N/A   Clear
11:35 PM 50.4 °F 48.0 °F 92% 30.00 in 10.0 mi Calm Calm - N/A   Clear
11:55 PM 49.3 °F 46.8 °F 91% 30.00 in 10.0 mi Calm Calm - N/A   Clear